SCP
-0 -0 -0 -0 0 0 0 0 0 0 0 -0 0 0 0 -0 -0 0 -0 -0 -0 0 0 0 0 0 0 0 0 0 0 0 0 0 0 0 0 0 0 0 0 0 0 0 0
-0 -0 -0 -0 0 0 0 0 0 -0 -0 -0 0 0 -0 -0 -0 0 -0 -0 -0 0 0 0 0 0 0 0 0 0 0 0 0 0 0 0 0 0 0 0 0 0 0 0 0
-0 -0 -0 0 0 0 0 0 0 -0 -0 0 -0 -0 0 0 0 0 0 0 0 0 0 0 0 0 0 -0 0 0 0 0 0 0 0 0 0 0 0 0 0 0 0 0 0
-0 -0 -0 -0 0 0 0 0 0 0 0 -0 -0 0 0 0 0 0 0 0 0 0 0 0 0 -0 0 0 0 0 0 0 0 0 0 0 0 0 0 0 0 0 0 0 0
-0 -0 -0 -0 -0 0 0 0 0 0 0 0 0 0 0 0 0 0 0 0 0 0 0 0 0 -0 -0 -0 0 0 0 0 -0 -0 -0 -0 -0 0 0 0 0 0 0 0 0
-0 -0 -0 -0 -0 0 0 0 0 0 0 0 0 0 0 0 0 0 0 0 0 0 0 0 0 0 0 0 0 0 -0 -0 -0 -0 -0 -0 0 0 0 0 0 0 -0 0 0
-0 -0 -0 -0 -0 0 0 0 0 0 0 0 0 0 0 0 0 0 0 0 0 0 0 0 0 0 0 0 -0 -0 -0 -0 -0 0 0 0 0 0 0 0 0 0 0 0 0
-0 -0 -0 -0 -0 0 0 0 0 -0 -0 -0 0 0 0 0 0 0 0 0 -0 0 0 0 0 0 0 0 0 0 0 0 0 0 0 0 0 0 0 0 0 0 0 0 0
-0 -0 -0 -0 -0 0 0 0 0 0 0 0 0 0 0 0 0 0 0 0 0 0 0 0 0 0 0 0 0 0 0 -0 -0 -0 0 0 0 0 0 0 0 0 0 0 0
-0 -0 -0 -0 -0 0 0 0 0 -0 0 0 0 0 0 0 0 0 0 0 0 0 0 0 0 0 0 0 0 0 -0 -0 0 0 0 0 0 0 0 0 0 0 0 0 0
-0 -0 -0 -0 0 0 -0 0 0 0 0 0 0 0 0 0 0 0 0 0 0 0 0 0 0 0 0 0 0 0 0 0 0 0 0 0 0 -0 0 0 0 0 0 0 0
-0 -0 -0 -0 -0 -0 0 0 0 0 0 0 0 0 0 0 0 0 0 0 0 0 0 0 0 -0 0 0 0 0 0 0 0 0 0 0 0 0 0 0 0 0 0 0 0
-0 -0 -0 -0 0 0 0 0 0 0 0 0 0 0 0 0 0 0 0 0 0 0 0 0 0 0 0 -0 0 0 0 0 0 0 0 0 0 0 0 0 0 0 0 0 0
-0 -0 0 -0 0 0 0 0 0 0 0 0 0 0 0 0 0 0 0 0 0 0 0 0 0 0 0 0 0 0 0 0 0 0 0 0 0 0 0 0 0 0 0 0 -0
-0 0 -0 0 0 0 -0 0 0 0 0 0 0 0 0 0 0 0 0 0 0 0 0 0 0 0 0 0 0 0 0 0 0 0 0 0 0 0 0 -0 -0 0 -0 0 -0
-0 0 -0 0 0 0 0 -0 0 0 0 0 0 0 0 0 0 0 0 0 0 0 0 0 0 0 -0 0 0 0 0 0 0 0 0 0 0 -0 0 -0 -0 -0 0 -0 -0
-0 0 -0 -0 0 0 -0 0 0 0 -0 0 0 0 0 0 0 0 0 0 0 0 0 0 0 0 0 0 0 0 0 0 0 0 0 0 0 0 0 0 -0 -0 0 0 0
-0 0 0 0 -0 0 0 0 0 0 0 0 0 0 0 0 0 0 0 0 0 0 0 0 0 0 0 0 0 0 0 0 0 0 0 0 0 0 0 0 0 0 0 0 0
-0 0 0 0 0 0 0 0 0 0 0 0 0 0 0 0 0 0 0 0 0 0 0 0 0 0 0 0 0 0 0 0 0 0 0 0 0 0 0 -0 0 0 0 0 0
0 0 0 0 0 0 0 0 0 0 0 0 0 0 0 0 0 0 0 0 0 0 0 0 0 0 0 0 0 0 0 0 0 0 0 0 0 0 -0 -0 -0 -0 -0 0 0
0 0 0 0 0 0 0 0 0 0 0 0 0 0 0 0 0 0 0 0 0 0 0 0 0 0 0 0 0 0 0 0 0 0 0 -0 -0 0 -0 0 -0 -0 0 0 0
0 0 0 0 0 0 0 0 0 0 0 0 0 0 0 0 0 0 0 0 0 0 0 0 0 0 0 0 0 0 0 0 0 -0 0 -0 -0 -0 0 -0 0 0 0 0 0
0 0 0 0 0 0 0 0 0 0 0 0 0 0 0 0 0 0 0 0 0 0 0 0 0 0 0 0 0 0 0 -0 -0 -0 0 0 0 0 -0 0 0 0 0 0 -0
0 0 0 0 0 0 0 0 0 0 0 0 0 0 0 0 0 0 0 0 0 0 0 0 0 0 0 0 0 0 0 0 0 0 0 0 -0 -0 -0 0 0 -0 -0 -0 -0
0 0 0 0 0 0 0 0 0 0 0 0 0 0 0 0 0 0 0 0 0 0 0 0 0 0 0 0 0 0 0 0 0 0 0 0 -0 0 0 0 0 0 -0 -0 -0
0 0 0 0 0 0 0 0 0 0 0 0 0 0 0 0 0 0 0 0 0 0 0 0 0 0 0 0 0 0 0 0 0 0 0 0 -0 0 0 0 0 0 0 0 0
0 0 0 0 0 0 0 0 0 0 0 0 0 0 0 0 0 0 0 0 0 0 0 0 0 0 0 0 0 0 0 0 0 0 0 0 0 0 0 0 0 0 -0 0 0
Wind_Speed_500mb
25 19 17 15 14 14 14 21 21 17 10 10 17 19 15 14 17 17 14 11 14 22 24 23 25 18 16 20 7 10 6 8 9 13 15 38 25 52 42 45 36 28 24 32 39
25 15 15 15 16 17 18 21 21 17 11 17 17 14 8 11 13 20 17 11 20 26 30 32 25 22 20 12 7 7 4 11 9 8 12 33 21 32 24 36 35 39 36 36 39
25 13 11 13 16 19 22 21 17 15 16 19 18 12 1 15 8 15 25 27 23 26 35 40 36 24 33 10 3 3 4 18 35 14 18 27 30 29 18 9 34 43 46 47 49
27 15 11 14 17 21 22 18 13 11 16 20 15 5 7 13 8 9 11 21 29 34 32 37 42 43 16 14 40 6 24 31 32 24 24 15 48 26 26 33 37 42 43 42 48
29 19 14 15 18 22 21 14 12 13 19 17 10 5 12 10 3 9 20 24 27 33 31 27 29 25 15 24 38 15 18 45 44 49 47 46 39 40 42 39 40 39 44 49 51
29 22 17 17 21 23 17 11 14 18 16 11 6 14 11 8 7 14 20 23 22 20 21 24 30 30 21 21 19 32 41 42 54 60 65 36 44 49 48 45 47 49 53 59 52
27 22 19 21 24 21 13 14 16 18 15 6 9 19 10 4 2 9 17 22 28 15 15 17 19 19 29 16 26 43 29 32 48 49 23 29 13 12 38 46 50 60 62 50 41
25 21 22 24 26 17 12 14 16 19 12 2 6 21 12 9 2 8 13 16 22 18 23 28 21 22 27 31 42 27 17 17 18 20 30 25 16 21 56 60 63 65 63 59 50
26 21 22 25 24 15 11 9 13 14 5 8 13 18 17 9 4 11 17 14 26 31 28 32 29 27 36 14 13 13 11 19 20 27 22 19 37 31 51 46 43 47 53 54 56
23 19 20 22 20 14 14 7 9 14 13 24 24 18 18 7 15 24 5 11 29 36 36 34 30 10 14 4 10 13 16 15 27 26 28 21 21 30 44 52 54 61 67 71 72
18 14 13 15 13 11 16 17 18 7 19 21 26 17 22 2 17 29 18 14 27 29 15 33 9 14 23 15 12 12 18 26 33 17 26 28 35 48 46 56 61 70 74 76 81
17 12 12 8 4 9 13 24 24 23 25 35 48 38 26 27 14 32 9 5 20 14 27 14 14 23 39 32 15 18 26 22 23 27 28 27 41 50 42 41 35 45 45 45 32
24 13 10 4 5 8 13 17 26 24 12 35 33 28 28 19 28 41 19 16 7 13 19 14 23 35 24 33 33 24 20 12 19 31 33 24 38 37 33 21 42 53 57 61 53
30 16 9 6 8 21 18 22 18 25 4 10 12 9 19 27 22 34 8 3 3 13 19 16 23 32 27 32 29 29 13 18 25 25 34 6 29 36 15 23 31 49 69 76 74
34 15 5 6 6 15 27 24 32 1 6 13 14 15 13 15 20 9 12 11 12 17 17 31 26 27 24 17 22 13 18 18 24 30 19 28 14 14 14 15 28 28 66 88 71
34 14 6 4 2 25 30 23 18 3 8 10 11 9 6 25 38 38 7 12 31 24 20 20 31 15 20 35 27 41 29 36 13 12 16 5 3 8 9 11 12 38 53 55 73
34 16 6 11 2 23 30 21 4 5 16 16 22 32 29 35 24 7 9 9 11 12 11 13 15 19 34 45 31 28 19 14 10 7 14 10 18 12 16 22 16 18 48 48 70
32 16 1 2 6 26 17 6 5 17 20 22 25 31 23 28 27 30 24 15 16 11 10 10 14 15 40 27 17 19 10 6 11 5 29 27 11 6 7 36 49 28 58 50 60
28 8 4 3 9 19 8 1 8 12 23 20 23 17 15 38 25 23 23 16 12 8 3 7 9 32 20 22 15 14 11 3 4 9 9 10 3 4 23 27 28 32 42 48 48
24 3 7 4 16 7 2 9 8 24 21 16 8 15 29 28 22 24 14 16 14 23 19 10 19 3 19 34 19 29 13 4 3 7 11 10 12 5 7 7 10 11 26 44 50
14 8 5 15 15 3 4 5 8 29 26 10 16 21 20 21 25 24 12 21 10 13 16 9 5 16 15 8 35 26 5 5 7 6 5 11 8 14 14 8 12 8 38 51 59
11 6 2 19 3 8 6 17 35 32 17 10 17 13 17 19 12 21 15 12 15 1 7 5 5 9 30 44 33 24 1 30 5 17 10 13 32 22 3 25 22 22 37 49 56
29 10 1 18 4 7 13 21 32 27 12 3 3 6 13 16 11 11 21 42 50 20 2 8 1 11 22 11 14 8 24 31 25 6 22 12 19 9 27 21 34 37 46 56 62
17 8 14 12 24 14 13 13 20 29 17 22 6 19 15 16 16 14 26 17 48 44 29 19 13 15 23 34 26 43 39 40 30 10 13 23 41 32 13 16 23 38 45 52 57
21 12 19 10 15 34 24 16 24 15 27 35 12 14 18 14 19 22 23 39 32 44 6 8 10 13 27 34 36 40 49 49 41 33 17 21 21 24 13 12 28 55 71 84 83
16 16 20 34 28 21 22 13 26 26 19 15 12 23 17 18 19 31 20 15 16 17 13 8 10 12 33 32 39 48 43 28 24 18 13 16 33 27 20 31 45 63 73 77 72
25 25 16 22 20 13 16 29 26 36 17 49 34 25 22 14 34 42 51 61 44 32 38 20 19 14 30 27 31 24 10 11 14 13 5 18 36 13 25 30 67 76 81 75 68
Wind_Direction_500mb
15 24 27 32 32 26 23 9 9 5 12 137 135 126 109 73 44 32 29 80 50 21 7 353 10 334 302 268 221 271 38 272 312 20 307 4 7 353 350 356 349 342 328 314 314
12 20 29 32 35 29 12 5 10 21 64 144 147 139 103 46 41 40 37 78 49 20 16 358 341 348 296 244 245 144 114 261 351 358 353 332 360 334 345 333 329 323 316 306 305
12 19 31 34 28 20 11 9 21 41 96 139 146 145 76 357 36 28 71 67 47 25 13 357 345 315 298 269 219 22 288 299 316 349 342 313 313 319 323 315 315 312 312 309 305
16 23 28 30 22 14 11 16 39 70 106 140 154 152 350 358 60 359 56 54 43 17 4 3 358 11 339 5 337 17 315 301 275 313 317 298 308 300 294 287 297 303 306 299 297
24 29 31 26 18 9 8 28 73 101 113 126 119 47 5 350 99 26 29 21 5 351 2 343 358 359 4 317 336 344 312 315 319 307 298 293 269 265 268 275 286 282 278 281 277
28 30 31 21 11 6 15 66 103 125 122 108 52 358 351 293 313 333 340 350 354 341 336 336 353 341 308 326 326 298 301 306 299 289 285 268 265 258 256 263 270 267 260 266 266
26 32 26 11 5 8 42 92 117 131 132 104 13 0 337 305 216 315 330 330 330 301 302 312 321 319 312 308 284 295 296 289 279 275 272 318 315 263 278 286 271 255 257 267 264
28 31 20 16 7 24 76 104 121 134 138 144 334 334 294 357 29 262 308 311 314 320 316 300 282 281 270 262 274 275 274 280 279 350 330 359 281 298 318 313 311 308 301 292 287
27 31 24 18 20 49 78 121 148 158 198 272 301 336 280 280 341 311 290 307 320 316 299 292 263 251 272 257 299 273 268 319 320 346 324 328 302 296 298 296 300 308 307 301 293
21 28 25 23 35 56 57 25 267 248 272 288 277 303 256 272 328 320 317 287 318 306 302 301 256 207 275 259 255 317 329 313 307 307 292 303 302 314 327 322 309 301 296 290 284
4 8 14 25 44 39 5 346 330 275 270 238 286 238 298 284 311 293 270 300 319 332 313 313 315 253 258 290 311 321 304 288 290 310 354 332 318 306 315 302 289 284 277 270 265
342 345 3 355 51 28 9 10 351 315 300 282 260 267 285 280 280 304 218 236 314 310 316 337 313 325 322 310 322 296 276 294 304 337 326 322 300 292 293 282 313 312 315 286 291
350 317 342 30 342 323 344 358 344 316 292 295 249 226 259 223 264 275 243 265 309 325 306 311 292 304 312 317 310 293 301 302 312 319 295 289 277 290 288 311 315 303 296 304 292
349 329 306 317 348 345 20 335 317 333 317 251 166 232 230 250 267 267 205 167 239 274 281 280 300 297 302 286 285 285 303 324 315 312 292 26 307 310 344 348 338 326 337 331 298
349 340 289 14 20 23 354 335 335 314 344 163 153 201 223 221 270 267 210 191 235 281 295 283 283 282 294 315 316 305 323 322 318 303 321 309 269 322 351 336 342 341 342 351 317
352 346 169 202 318 349 334 319 314 356 255 137 118 321 332 304 305 306 194 293 307 274 265 284 341 342 344 1 5 344 339 324 339 320 286 318 80 272 306 275 327 342 333 316 9
348 338 216 231 64 345 319 335 7 220 344 18 358 357 326 301 306 32 315 284 268 328 331 340 316 316 34 348 343 347 343 327 326 354 257 313 326 289 347 315 284 311 331 347 1
345 352 44 141 47 313 349 359 265 335 19 3 354 323 301 360 2 346 344 335 323 49 13 326 332 348 348 339 314 330 327 141 271 293 295 293 246 147 324 344 318 15 359 335 359
346 309 72 100 4 296 322 293 301 23 19 3 338 316 354 350 344 347 352 311 18 74 120 357 247 327 321 356 345 298 322 244 137 239 276 250 286 43 24 357 334 350 331 345 342
349 10 319 130 321 58 320 248 347 28 359 23 322 0 333 328 343 349 333 304 16 40 43 337 310 280 326 327 291 333 281 0 43 307 285 281 303 211 339 242 325 302 330 2 6
348 343 185 358 316 279 240 332 354 358 37 7 313 303 318 341 343 337 296 319 48 15 16 15 130 288 331 305 305 309 13 346 202 215 241 303 264 211 231 1 322 348 7 3 358
17 328 318 348 249 239 34 343 351 322 10 14 351 349 338 341 316 302 282 303 21 144 346 112 248 293 294 289 281 256 163 283 195 284 233 262 287 256 93 347 337 20 358 347 339
343 286 328 353 21 345 343 350 311 353 342 196 296 311 309 289 302 306 303 328 321 346 132 180 288 307 307 310 357 7 308 311 298 14 279 272 268 307 324 317 18 7 349 341 333
353 335 349 8 25 20 343 307 321 308 300 22 338 333 321 311 313 292 311 304 320 322 318 174 188 196 260 272 287 293 290 288 292 268 277 263 285 307 316 17 353 335 327 323 319
11 26 14 323 340 319 302 282 293 334 6 357 332 315 327 314 306 287 303 304 300 291 329 182 238 247 264 274 282 287 290 292 289 257 246 292 302 311 346 345 325 320 324 322 312
24 3 335 298 300 300 283 351 351 340 344 317 323 332 322 298 289 312 329 313 272 302 255 173 253 254 271 281 282 279 279 289 283 294 279 305 292 292 343 332 317 311 314 307 301
11 356 324 287 304 333 347 333 340 356 339 330 314 300 289 343 337 314 296 281 263 265 267 255 269 279 273 284 289 288 242 262 289 289 264 281 282 7 325 322 307 316 309 305 297
Wind_Speed_850mb
25 19 17 15 14 14 14 21 21 17 10 10 17 19 15 14 17 17 14 11 14 22 24 23 25 18 16 20 7 10 6 8 9 13 15 38 25 52 42 45 36 28 24 32 39
25 15 15 15 16 17 18 21 21 17 11 17 17 14 8 11 13 20 17 11 20 26 30 32 25 22 20 12 7 7 4 11 9 8 12 33 21 32 24 36 35 39 36 36 39
25 13 11 13 16 19 22 21 17 15 16 19 18 12 1 15 8 15 25 27 23 26 35 40 36 24 33 10 3 3 4 18 35 14 18 27 30 29 18 9 34 43 46 47 49
27 15 11 14 17 21 22 18 13 11 16 20 15 5 7 13 8 9 11 21 29 34 32 37 42 43 16 14 40 6 24 31 32 24 24 15 48 26 26 33 37 42 43 42 48
29 19 14 15 18 22 21 14 12 13 19 17 10 5 12 10 3 9 20 24 27 33 31 27 29 25 15 24 38 15 18 45 44 49 47 46 39 40 42 39 40 39 44 49 51
29 22 17 17 21 23 17 11 14 18 16 11 6 14 11 8 7 14 20 23 22 20 21 24 30 30 21 21 19 32 41 42 54 60 65 36 44 49 48 45 47 49 53 59 52
27 22 19 21 24 21 13 14 16 18 15 6 9 19 10 4 2 9 17 22 28 15 15 17 19 19 29 16 26 43 29 32 48 49 23 29 13 12 38 46 50 60 62 50 41
25 21 22 24 26 17 12 14 16 19 12 2 6 21 12 9 2 8 13 16 22 18 23 28 21 22 27 31 42 27 17 17 18 20 30 25 16 21 56 60 63 65 63 59 50
26 21 22 25 24 15 11 9 13 14 5 8 13 18 17 9 4 11 17 14 26 31 28 32 29 27 36 14 13 13 11 19 20 27 22 19 37 31 51 46 43 47 53 54 56
23 19 20 22 20 14 14 7 9 14 13 24 24 18 18 7 15 24 5 11 29 36 36 34 30 10 14 4 10 13 16 15 27 26 28 21 21 30 44 52 54 61 67 71 72
18 14 13 15 13 11 16 17 18 7 19 21 26 17 22 2 17 29 18 14 27 29 15 33 9 14 23 15 12 12 18 26 33 17 26 28 35 48 46 56 61 70 74 76 81
17 12 12 8 4 9 13 24 24 23 25 35 48 38 26 27 14 32 9 5 20 14 27 14 14 23 39 32 15 18 26 22 23 27 28 27 41 50 42 41 35 45 45 45 32
24 13 10 4 5 8 13 17 26 24 12 35 33 28 28 19 28 41 19 16 7 13 19 14 23 35 24 33 33 24 20 12 19 31 33 24 38 37 33 21 42 53 57 61 53
30 16 9 6 8 21 18 22 18 25 4 10 12 9 19 27 22 34 8 3 3 13 19 16 23 32 27 32 29 29 13 18 25 25 34 6 29 36 15 23 31 49 69 76 74
34 15 5 6 6 15 27 24 32 1 6 13 14 15 13 15 20 9 12 11 12 17 17 31 26 27 24 17 22 13 18 18 24 30 19 28 14 14 14 15 28 28 66 88 71
34 14 6 4 2 25 30 23 18 3 8 10 11 9 6 25 38 38 7 12 31 24 20 20 31 15 20 35 27 41 29 36 13 12 16 5 3 8 9 11 12 38 53 55 73
34 16 6 11 2 23 30 21 4 5 16 16 22 32 29 35 24 7 9 9 11 12 11 13 15 19 34 45 31 28 19 14 10 7 14 10 18 12 16 22 16 18 48 48 70
32 16 1 2 6 26 17 6 5 17 20 22 25 31 23 28 27 30 24 15 16 11 10 10 14 15 40 27 17 19 10 6 11 5 29 27 11 6 7 36 49 28 58 50 60
28 8 4 3 9 19 8 1 8 12 23 20 23 17 15 38 25 23 23 16 12 8 3 7 9 32 20 22 15 14 11 3 4 9 9 10 3 4 23 27 28 32 42 48 48
24 3 7 4 16 7 2 9 8 24 21 16 8 15 29 28 22 24 14 16 14 23 19 10 19 3 19 34 19 29 13 4 3 7 11 10 12 5 7 7 10 11 26 44 50
14 8 5 15 15 3 4 5 8 29 26 10 16 21 20 21 25 24 12 21 10 13 16 9 5 16 15 8 35 26 5 5 7 6 5 11 8 14 14 8 12 8 38 51 59
11 6 2 19 3 8 6 17 35 32 17 10 17 13 17 19 12 21 15 12 15 1 7 5 5 9 30 44 33 24 1 30 5 17 10 13 32 22 3 25 22 22 37 49 56
29 10 1 18 4 7 13 21 32 27 12 3 3 6 13 16 11 11 21 42 50 20 2 8 1 11 22 11 14 8 24 31 25 6 22 12 19 9 27 21 34 37 46 56 62
17 8 14 12 24 14 13 13 20 29 17 22 6 19 15 16 16 14 26 17 48 44 29 19 13 15 23 34 26 43 39 40 30 10 13 23 41 32 13 16 23 38 45 52 57
21 12 19 10 15 34 24 16 24 15 27 35 12 14 18 14 19 22 23 39 32 44 6 8 10 13 27 34 36 40 49 49 41 33 17 21 21 24 13 12 28 55 71 84 83
16 16 20 34 28 21 22 13 26 26 19 15 12 23 17 18 19 31 20 15 16 17 13 8 10 12 33 32 39 48 43 28 24 18 13 16 33 27 20 31 45 63 73 77 72
25 25 16 22 20 13 16 29 26 36 17 49 34 25 22 14 34 42 51 61 44 32 38 20 19 14 30 27 31 24 10 11 14 13 5 18 36 13 25 30 67 76 81 75 68
Wind_Direction_850mb
15 24 27 32 32 26 23 9 9 5 12 137 135 126 109 73 44 32 29 80 50 21 7 353 10 334 302 268 221 271 38 272 312 20 307 4 7 353 350 356 349 342 328 314 314
12 20 29 32 35 29 12 5 10 21 64 144 147 139 103 46 41 40 37 78 49 20 16 358 341 348 296 244 245 144 114 261 351 358 353 332 360 334 345 333 329 323 316 306 305
12 19 31 34 28 20 11 9 21 41 96 139 146 145 76 357 36 28 71 67 47 25 13 357 345 315 298 269 219 22 288 299 316 349 342 313 313 319 323 315 315 312 312 309 305
16 23 28 30 22 14 11 16 39 70 106 140 154 152 350 358 60 359 56 54 43 17 4 3 358 11 339 5 337 17 315 301 275 313 317 298 308 300 294 287 297 303 306 299 297
24 29 31 26 18 9 8 28 73 101 113 126 119 47 5 350 99 26 29 21 5 351 2 343 358 359 4 317 336 344 312 315 319 307 298 293 269 265 268 275 286 282 278 281 277
28 30 31 21 11 6 15 66 103 125 122 108 52 358 351 293 313 333 340 350 354 341 336 336 353 341 308 326 326 298 301 306 299 289 285 268 265 258 256 263 270 267 260 266 266
26 32 26 11 5 8 42 92 117 131 132 104 13 0 337 305 216 315 330 330 330 301 302 312 321 319 312 308 284 295 296 289 279 275 272 318 315 263 278 286 271 255 257 267 264
28 31 20 16 7 24 76 104 121 134 138 144 334 334 294 357 29 262 308 311 314 320 316 300 282 281 270 262 274 275 274 280 279 350 330 359 281 298 318 313 311 308 301 292 287
27 31 24 18 20 49 78 121 148 158 198 272 301 336 280 280 341 311 290 307 320 316 299 292 263 251 272 257 299 273 268 319 320 346 324 328 302 296 298 296 300 308 307 301 293
21 28 25 23 35 56 57 25 267 248 272 288 277 303 256 272 328 320 317 287 318 306 302 301 256 207 275 259 255 317 329 313 307 307 292 303 302 314 327 322 309 301 296 290 284
4 8 14 25 44 39 5 346 330 275 270 238 286 238 298 284 311 293 270 300 319 332 313 313 315 253 258 290 311 321 304 288 290 310 354 332 318 306 315 302 289 284 277 270 265
342 345 3 355 51 28 9 10 351 315 300 282 260 267 285 280 280 304 218 236 314 310 316 337 313 325 322 310 322 296 276 294 304 337 326 322 300 292 293 282 313 312 315 286 291
350 317 342 30 342 323 344 358 344 316 292 295 249 226 259 223 264 275 243 265 309 325 306 311 292 304 312 317 310 293 301 302 312 319 295 289 277 290 288 311 315 303 296 304 292
349 329 306 317 348 345 20 335 317 333 317 251 166 232 230 250 267 267 205 167 239 274 281 280 300 297 302 286 285 285 303 324 315 312 292 26 307 310 344 348 338 326 337 331 298
349 340 289 14 20 23 354 335 335 314 344 163 153 201 223 221 270 267 210 191 235 281 295 283 283 282 294 315 316 305 323 322 318 303 321 309 269 322 351 336 342 341 342 351 317
352 346 169 202 318 349 334 319 314 356 255 137 118 321 332 304 305 306 194 293 307 274 265 284 341 342 344 1 5 344 339 324 339 320 286 318 80 272 306 275 327 342 333 316 9
348 338 216 231 64 345 319 335 7 220 344 18 358 357 326 301 306 32 315 284 268 328 331 340 316 316 34 348 343 347 343 327 326 354 257 313 326 289 347 315 284 311 331 347 1
345 352 44 141 47 313 349 359 265 335 19 3 354 323 301 360 2 346 344 335 323 49 13 326 332 348 348 339 314 330 327 141 271 293 295 293 246 147 324 344 318 15 359 335 359
346 309 72 100 4 296 322 293 301 23 19 3 338 316 354 350 344 347 352 311 18 74 120 357 247 327 321 356 345 298 322 244 137 239 276 250 286 43 24 357 334 350 331 345 342
349 10 319 130 321 58 320 248 347 28 359 23 322 0 333 328 343 349 333 304 16 40 43 337 310 280 326 327 291 333 281 0 43 307 285 281 303 211 339 242 325 302 330 2 6
348 343 185 358 316 279 240 332 354 358 37 7 313 303 318 341 343 337 296 319 48 15 16 15 130 288 331 305 305 309 13 346 202 215 241 303 264 211 231 1 322 348 7 3 358
17 328 318 348 249 239 34 343 351 322 10 14 351 349 338 341 316 302 282 303 21 144 346 112 248 293 294 289 281 256 163 283 195 284 233 262 287 256 93 347 337 20 358 347 339
343 286 328 353 21 345 343 350 311 353 342 196 296 311 309 289 302 306 303 328 321 346 132 180 288 307 307 310 357 7 308 311 298 14 279 272 268 307 324 317 18 7 349 341 333
353 335 349 8 25 20 343 307 321 308 300 22 338 333 321 311 313 292 311 304 320 322 318 174 188 196 260 272 287 293 290 288 292 268 277 263 285 307 316 17 353 335 327 323 319
11 26 14 323 340 319 302 282 293 334 6 357 332 315 327 314 306 287 303 304 300 291 329 182 238 247 264 274 282 287 290 292 289 257 246 292 302 311 346 345 325 320 324 322 312
24 3 335 298 300 300 283 351 351 340 344 317 323 332 322 298 289 312 329 313 272 302 255 173 253 254 271 281 282 279 279 289 283 294 279 305 292 292 343 332 317 311 314 307 301
11 356 324 287 304 333 347 333 340 356 339 330 314 300 289 343 337 314 296 281 263 265 267 255 269 279 273 284 289 288 242 262 289 289 264 281 282 7 325 322 307 316 309 305 297